#timestamp,LO_Frequency,Hit,StdDev 
1682258415.6,286046996.8,N
1682258435.4,286046999.0,N
1682258455.3,286046999.4,N
1682258475.1,286046996.5,Y
1682258476.0,286046996.5,P
1682258495.8,286046999.0,N
1682258515.7,286046999.2,N
1682258535.5,286046998.2,N
1682258555.4,286046998.8,N
1682258575.2,286046998.9,N
1682258595.0,286047000.9,N
1682258595.9,286047000.9,N
1682258615.8,286046998.1,N
1682258635.6,286046998.4,N
1682258655.4,286046998.1,N
1682258675.3,286046999.1,N
1682258695.1,286046998.8,N
1682258715.9,286046997.0,N
1682258735.7,286046997.2,N
1682258755.5,286046996.6,N
1682258775.4,286046999.2,N
1682258795.2,286046998.9,N
1682258815.1,286047001.0,N
1682258816.0,286047001.0,N
1682258835.8,286047001.0,N
1682258855.6,286046999.8,N
1682258875.5,286047002.4,N
1682258895.3,286047002.4,N
1682258915.1,286047000.3,N
1682258935.9,286047000.4,N
1682258955.7,286047000.9,N
1682258975.6,286046998.3,N
1682258995.4,286047000.4,N
1682259015.2,286047000.3,N
1682259035.1,286047002.4,N
1682259036.0,286047002.4,N
1682259055.8,286047002.7,N
1682259075.7,286047002.8,N
1682259095.5,286047002.1,N
1682259115.3,286047000.0,N
1682259135.2,286047002.6,N
1682259155.0,286047002.6,N
1682259155.9,286047002.6,N
1682259175.7,286047001.3,N
1682259195.6,286047004.0,N
1682259215.4,286047004.0,N
1682259235.3,286047002.1,N
1682259255.1,286047002.2,N
1682259256.0,286047002.2,N
1682259275.8,286047001.7,N
1682259295.7,286047001.3,N
1682259315.5,286047003.8,N
1682259335.3,286047004.3,Y
1682259355.2,286047000.1,P
1682259375.0,286047000.5,N
1682259375.9,286047000.5,N
1682259395.8,286047001.0,N
1682259415.6,286047000.3,N
1682259435.4,286047000.2,N
1682259455.3,286047000.1,N
1682259475.1,286047000.3,N
1682259495.9,286046999.8,N
1682259515.7,286047001.8,Y
1682259535.5,286047002.0,P
1682259555.4,286047001.8,N
1682259575.2,286047001.6,N
1682259595.0,286047001.8,N
1682259595.9,286047001.8,Y
1682259615.8,286047002.2,P
1682259635.6,286047001.4,P
1682259655.5,286047001.7,P
1682259675.3,286047002.7,Y
1682259695.1,286046998.2,P
1682259715.9,286046998.9,N
1682259735.7,286046998.9,N
1682259755.5,286046999.3,N
1682259775.4,286046998.7,N
1682259795.2,286047000.7,N
1682259815.1,286047000.6,N
1682259816.0,286047000.6,N
1682259835.8,286047001.1,N
1682259855.6,286046998.1,N
1682259875.5,286046998.4,N
1682259895.3,286047001.1,N
1682259915.1,286047001.2,N
1682259935.9,286046998.8,N
1682259955.7,286046998.8,N
1682259975.6,286046998.9,N
1682259995.4,286046998.3,N
1682260015.2,286047000.5,N
1682260035.1,286047000.9,N
1682260036.0,286047000.9,N
1682260055.8,286046998.6,N
1682260075.7,286047000.9,N
1682260095.5,286047000.9,N
1682260115.3,286046998.2,N
1682260135.2,286047000.8,N
1682260155.0,286047001.1,N
1682260155.9,286047001.1,N
1682260175.7,286047000.6,N
1682260195.6,286047000.7,N
1682260215.4,286046998.3,N
1682260235.3,286046998.6,N
1682260255.1,286046998.7,N
1682260275.8,286046998.6,N
1682260295.7,286046998.2,N
1682260315.5,286046998.5,N
1682260335.4,286046998.4,N
1682260355.2,286046998.6,N
1682260375.0,286046998.6,N
1682260375.9,286046998.6,N
1682260395.8,286047000.8,N
1682260415.6,286046998.1,N
1682260435.5,286046998.6,N
1682260455.3,286047001.1,N
1682260475.1,286047001.1,N
1682260495.9,286047000.1,N
1682260515.7,286047000.3,N
1682260535.5,286047000.0,N
1682260555.4,286047000.0,N
1682260575.2,286047000.2,N
1682260595.1,286047000.5,N
1682260596.0,286047000.5,N
1682260615.8,286047002.6,N
1682260635.6,286046999.7,N
1682260655.5,286047002.1,N
1682260675.3,286047002.4,N
1682260695.1,286047002.0,N
1682260715.9,286047002.4,N
1682260735.7,286047000.3,N
1682260755.6,286047002.4,N
1682260775.4,286047000.4,N
1682260795.2,286047000.2,N
1682260815.1,286047002.7,N
1682260816.0,286047002.7,N
1682260835.8,286047000.6,N
1682260855.7,286047001.1,N
1682260875.5,286047000.7,N
1682260895.3,286047000.4,N
1682260915.2,286047000.4,N
1682260935.9,286046999.9,N
1682260955.7,286047000.3,N
1682260975.6,286046999.8,N
1682260995.4,286047002.5,N
1682261015.2,286047002.7,N
1682261035.1,286047002.0,N
1682261036.0,286047002.0,N
1682261055.8,286047001.6,N
1682261075.7,286047002.3,N
1682261095.5,286047001.9,N
1682261115.4,286047002.6,N
1682261135.2,286047001.8,N
1682261155.0,286047002.0,N
1682261155.9,286047002.0,N
1682261175.8,286046999.7,N
1682261195.6,286047001.4,N
1682261215.4,286047002.0,N
1682261235.3,286047002.5,N
1682261255.1,286047001.6,N
1682261275.9,286047004.0,Y
1682261295.7,286047002.2,P
1682261315.5,286047002.1,P
1682261335.4,286047001.5,P
1682261355.2,286047002.0,Y
1682261375.1,286047002.7,P
1682261376.0,286047002.7,P
1682261395.8,286047001.2,N
1682261415.6,286046998.9,N
1682261435.5,286046999.0,N
1682261455.3,286046999.1,N
1682261475.2,286046999.1,N
1682261495.9,286046998.7,N
1682261515.7,286046998.9,N
1682261535.6,286046998.4,N
1682261555.4,286047000.5,N
1682261575.2,286046999.9,N
1682261595.1,286047000.7,N
1682261596.0,286047000.7,N
1682261615.8,286046998.1,N
1682261635.7,286046998.6,N
1682261655.5,286047000.8,N
1682261675.3,286047001.1,N
1682261695.2,286047000.5,N
1682261715.9,286047000.0,N
1682261735.7,286047002.4,N
1682261755.6,286047001.6,N
1682261775.4,286047001.9,N
1682261795.3,286047001.6,N
1682261815.1,286047001.7,N
1682261816.0,286047001.7,N
1682261835.8,286047002.4,N
1682261855.7,286047000.2,N
1682261875.5,286047002.8,N
1682261895.3,286047000.2,N
1682261915.2,286047001.1,N
1682261935.0,286047000.8,N
1682261935.9,286047000.8,N
1682261955.8,286047000.9,N
1682261975.6,286047000.5,N
1682261995.4,286047000.9,N
